Location: Kellogg
(38.0159°N, 90.0546°W)
Time: 23:44:17
(UTC+00:00)

Transit 4A - All Passes

Search period start: 11 September 2024 00:00
Search period end: 21 September 2024 00:00
Orbit: 866 x 976 km, 66.8° (Epoch: 11 September)

Date Brightness Start Highest point End Pass type
(mag) Time Alt. Az. Time Alt. Az. Time Alt. Az.
11 Sep - 09:19:45 10° SSW 09:25:31 73° ESE 09:31:27 10° NNE visible
11 Sep - 11:08:20 10° W 11:12:28 19° NW 11:16:41 10° N visible
11 Sep - 16:40:10 10° NNE 16:42:18 12° NE 16:44:26 10° ENE daylight
11 Sep - 18:23:48 10° NNW 18:29:58 58° ENE 18:36:13 10° SE daylight
11 Sep - 20:11:10 10° WNW 20:15:50 22° WSW 20:20:32 10° SSW daylight
12 Sep - 07:46:05 10° SE 07:48:58 14° ESE 07:51:52 10° ENE visible
12 Sep - 09:28:40 10° SSW 09:34:29 76° WNW 09:40:27 10° NNE visible
12 Sep - 11:18:55 10° WNW 11:21:51 14° NW 11:24:50 10° N daylight
12 Sep - 16:47:57 10° N 16:51:45 16° NE 16:55:34 10° E daylight
12 Sep - 18:32:42 10° NNW 18:38:59 84° ENE 18:45:22 10° SSE daylight
12 Sep - 20:21:27 10° WNW 20:24:32 14° WSW 20:27:39 10° SW daylight
13 Sep - 07:53:16 10° SSE 07:57:39 22° ESE 08:02:06 10° ENE visible
13 Sep - 09:37:52 10° SW 09:43:31 51° WNW 09:49:20 10° NNE visible
13 Sep - 16:56:17 10° N 17:01:06 23° NE 17:05:58 10° E daylight
13 Sep - 18:41:44 10° NNW 18:47:57 67° WSW 18:54:14 10° SSE daylight
14 Sep - 08:01:13 10° S 08:06:23 35° ESE 08:11:41 10° NE visible
14 Sep - 09:47:22 10° WSW 09:52:39 35° NW 09:58:05 10° NNE visible
14 Sep - 17:04:51 10° N 17:10:22 32° NE 17:15:56 10° ESE daylight
14 Sep - 18:50:55 10° NW 18:56:49 45° WSW 19:02:49 10° S daylight
15 Sep - 08:09:35 10° S 08:15:12 53° ESE 08:20:59 10° NE visible
15 Sep - 09:57:09 10° WSW 10:01:52 25° NW 10:06:42 10° N visible
15 Sep - 17:13:33 10° NNW 17:19:32 45° NE 17:25:34 10° SE daylight
15 Sep - 19:00:18 10° NW 19:05:39 30° WSW 19:11:01 10° SSW daylight
16 Sep - 08:18:18 10° SSW 08:24:06 82° ESE 08:30:05 10° NNE visible
16 Sep - 10:07:19 10° W 10:11:11 18° NW 10:15:06 10° N visible
16 Sep - 15:38:18 10° NNE 15:41:03 13° NE 15:43:50 10° ENE daylight
16 Sep - 17:22:22 10° NNW 17:28:37 65° ENE 17:34:55 10° SE daylight
16 Sep - 19:10:03 10° WNW 19:14:22 20° WSW 19:18:44 10° SSW daylight
17 Sep - 06:44:01 10° SE 06:47:28 16° ESE 06:50:58 10° ENE visible
17 Sep - 08:27:18 10° SW 08:33:05 68° WNW 08:39:03 10° NNE visible
17 Sep - 10:18:07 10° WNW 10:20:36 13° NW 10:23:07 10° NNW visible
17 Sep - 15:46:20 10° N 15:50:29 18° NE 15:54:41 10° E daylight
17 Sep - 17:31:19 10° NNW 17:37:36 87° WSW 17:43:59 10° SSE daylight
17 Sep - 19:20:43 10° W 19:23:03 12° W 19:25:23 10° WSW daylight
18 Sep - 06:51:30 10° SSE 06:56:10 26° ESE 07:00:55 10° NE visible
18 Sep - 08:36:34 10° SW 08:42:09 46° NW 08:47:53 10° NNE visible
18 Sep - 15:54:45 10° N 15:59:48 25° NE 16:04:54 10° ESE daylight
18 Sep - 17:40:22 10° NW 17:46:32 60° WSW 17:52:46 10° S daylight
19 Sep - 06:59:35 10° S 07:04:56 39° ESE 07:10:24 10° NE visible
19 Sep - 08:46:08 10° WSW 08:51:17 31° NW 08:56:35 10° N visible
19 Sep - 16:03:21 10° NNW 16:09:02 35° NE 16:14:47 10° ESE daylight
19 Sep - 17:49:36 10° NW 17:55:23 40° WSW 18:01:14 10° S daylight
20 Sep - 07:08:03 10° SSW 07:13:46 61° ESE 07:19:37 10° NE visible
20 Sep - 08:56:01 10° W 09:00:32 22° NW 09:05:09 10° N visible
20 Sep - 14:29:38 10° NNE 14:30:18 10° NE 14:30:58 10° NE daylight
20 Sep - 16:12:05 10° NNW 16:18:10 50° ENE 16:24:19 10° SE daylight
20 Sep - 17:59:04 10° NW 18:04:10 26° WSW 18:09:19 10° SSW daylight
